Regional Weather Roundup
Issued by NWS

Home | Current Version | Previous Version | Text Only | Print | Product List | Glossary Off
Versions: 1 2 3 4 5 6 7 8 9 10 11 12 13 14 15 16 17 18 19 20 21 22 23 24 25 26 27 28 29 30 31 32 33 34 35 36 37 38 39 40 41 42 43 44 45 46 47 48 49 50

000
ASUS45 KTFX 272210
RWRMT
MONTANA REGIONAL WEATHER ROUNDUP
NATIONAL WEATHER SERVICE GREAT FALLS MT
400 PM MDT WED MAY 27 2015

NOTE: "FAIR" INDICATES FEW OR NO CLOUDS BELOW 12000 FEET WITH NO
SIGNIFICANT WEATHER AND/OR OBSTRUCTIONS TO VISIBILITY.

MTZ001>007-043-272300-
WEST OF THE DIVIDE

CITY           SKY/WX    TMP DP  RH WIND       PRES   REMARKS
KALISPELL      CLOUDY    63  48  58 S7        29.98F
MISSOULA       PTSUNNY   64  43  46 W15       30.00S
BUTTE          PTSUNNY   58  42  55 NW12      30.04F
MULLAN PASS    LGT RAIN  48  41  76 SW5       30.09R
DEER LODGE       N/A     61  43  51 S3        30.04F
EUREKA           N/A     73  45  35 SW5       29.95F
HAMILTON         N/A     63  43  48 SW6       29.97F
LIBBY            N/A     70  48  46 W3        29.97F
$$

MTZ008-052>055-272300-
SOUTHWEST MONTANA

CITY           SKY/WX    TMP DP  RH WIND       PRES   REMARKS
BOZEMAN        LGT RAIN  55  47  74 SW5       30.05R
DILLON         PTSUNNY   59  40  49 SW3       30.02F
W YELLOWSTONE  CLOUDY    48  45  87 S13       30.08R
$$

MTZ009-010-012-014-046-048-049-054-272300-
EAST SLOPES AND CENTRAL MONTANA

CITY           SKY/WX    TMP DP  RH WIND       PRES   REMARKS
CUT BANK       CLOUDY    64  44  48 N8        29.97F
GREAT FALLS    PTSUNNY   63  48  58 W5        29.98F
MALMSTROM AFB  MOSUNNY   63  48  58 NW12      29.98F
HELENA         CLOUDY    66  46  48 E6        29.98F
$$

MTZ011-013-016-021-045-047-050-051-272300-
NORTH CENTRAL MONTANA

CITY           SKY/WX    TMP DP  RH WIND       PRES   REMARKS
HAVRE          LGT RAIN  62  55  77 E7        29.92R
LEWISTOWN      RAIN      58  51  78 CALM      29.99R
N BAR RANCH    MOCLDY    64  45  48 NW10      30.00F
CHINOOK          N/A     70  50  49 CALM      29.92R
FORT BENTON      N/A     66  48  52 W6        29.96F
$$

MTZ017>020-022>027-061-062-272300-
NORTHEAST MONTANA

CITY           SKY/WX    TMP DP  RH WIND       PRES   REMARKS
GLASGOW        PTSUNNY   69  51  52 S7        29.89S
JORDAN           N/A     62  55  77 SW6       29.92S
SIDNEY         CLOUDY    63  55  77 CALM      29.92F
WOLF POINT     PTSUNNY   72  52  49 S8        29.90F
PLENTYWOOD       N/A     75  48  38 E15       29.88F
POPLAR           N/A     68  55  64 S6        29.91F
$$

MTZ028>42-056>058-272300-
SOUTHCENTRAL AND SOUTHEAST MONTANA

CITY           SKY/WX    TMP DP  RH WIND       PRES   REMARKS
BAKER          CLOUDY    62  57  83 N17       29.94F
BILLINGS       PTSUNNY   63  49  60 NE9       29.96F
LIVINGSTON     MOSUNNY   65  41  41 W16       29.98S
MILES CITY     MOSUNNY   66  56  70 E6        29.91S
BIG TIMBER       N/A     66  43  42 S3        29.97F
FORSYTH          N/A     72  50  46 NW5       29.90S
$$

REGIONAL REPORTS...DAKOTAS

CITY           SKY/WX    TMP DP  RH WIND       PRES   REMARKS
WILLISTON      RAIN      60  56  86 CALM      29.98R FOG
MINOT          CLOUDY    77  49  37 E12       29.92F
DICKINSON      CLOUDY    61  54  77 NW31G38   29.89R
BEACH          LGT RAIN  55  55 100 N6        29.94F
CROSBY         FAIR      73  50  43 E22       29.92F
WATFORD CITY   RAIN      57  57 100 N6        29.95S
BISMARCK       PTSUNNY   80  45  28 S16       29.92F
GRAND FORKS    SUNNY     77  49  37 N6        29.95F
FARGO          SUNNY     82  50  32 CALM      29.95F
BUFFALO SD       N/A     72  51  47 S13G22    29.83F
RAPID CITY     CLOUDY    69  55  60 SE7       29.92F
$$

REGIONAL REPORTS...WYOMING/IDAHO/WASHINGTON

CITY           SKY/WX    TMP DP  RH WIND       PRES   REMARKS
GILLETTE       CLOUDY    67  53  61 N8        29.94S
SHERIDAN       PTSUNNY   67  51  56 VRB6      29.95F
BUFFALO WY     MOSUNNY   66  48  52 NE8G17    29.98F
CODY           CLOUDY    63  46  55 E8        29.97F
YELLOWSTONE LA   N/A     52  33  48 MISG      30.13F
IDAHO FALLS    CLOUDY    56  45  66 SE6       30.04S
SALMON         CLOUDY    55  45  67 S6        30.05F
BOISE          MOSUNNY   72  43  35 NW15G28   29.95F
SPOKANE        PTSUNNY   71  45  39 CALM      29.98F
$$

REGIONAL REPORTS...ALBERTA

CITY           SKY/WX    TMP DP  RH WIND       PRES   REMARKS
EDMONTON       PTSUNNY   75  46  35 SW2       29.87F
LETHBRIDGE     PTSUNNY   70  45  40 NE9G30    29.95F
MEDICINE HAT   TSTM      64  55  72 N5        29.93R
$$

REGIONAL REPORTS...SASKATCHEWAN

CITY           SKY/WX    TMP DP  RH WIND       PRES   REMARKS
SWIFT CURRENT  PTSUNNY   72  46  40 E21G28    29.92S
REGINA         CLOUDY    72  46  40 E12       29.95F
SASKATOON      PTSUNNY   68  36  30 VRB2      29.98F
$$



USA.gov is the U.S. government's official web portal to all federal, state and local government web resources and services.